Location: Ostrava
(49.8330°N, 18.2830°E)
Time: 10:51:59
(UTC+01:00)

Explorer 7 - Visible Passes

Search period start: 20 February 2018 00:00
Search period end: 02 March 2018 00:00
Orbit: 485 x 682 km, 50.3° (Epoch: 20 February)

Date Brightness Start Highest point End Pass type
(mag) Time Alt. Az. Time Alt. Az. Time Alt. Az.
20 Feb 7.9 03:50:18 54° E 03:50:18 54° E 03:54:04 10° E visible
20 Feb 7.3 05:26:39 21° W 05:29:54 68° SSW 05:34:39 10° ESE visible
21 Feb 7.6 03:55:33 62° E 03:55:33 62° E 03:59:37 10° E visible
21 Feb 7.5 05:31:55 18° W 05:35:20 54° SSW 05:40:00 10° SE visible
22 Feb 7.4 04:00:51 69° ESE 04:00:51 69° ESE 04:05:09 10° ESE visible
22 Feb 7.8 05:37:12 16° W 05:40:44 41° SSW 05:45:12 10° SE visible
23 Feb 10.2 02:29:51 11° E 02:29:51 11° E 02:29:56 10° E visible
23 Feb 7.3 04:06:12 70° SSE 04:06:12 70° SSE 04:10:37 10° ESE visible
23 Feb 8.2 05:42:34 14° W 05:46:03 30° SW 05:50:13 10° SSE visible
24 Feb 10.2 02:35:16 11° E 02:35:16 11° E 02:35:29 10° E visible
24 Feb 7.4 04:11:38 60° S 04:11:38 60° S 04:16:02 10° ESE visible
24 Feb 8.7 05:47:59 12° W 05:51:18 22° SW 05:54:56 10° S visible
25 Feb 10.1 02:40:46 11° E 02:40:46 11° E 02:41:01 10° E visible
25 Feb 7.6 04:17:09 47° S 04:17:09 47° S 04:21:20 10° SE visible
25 Feb 9.0 05:53:45 10° W 05:56:29 15° SW 05:59:12 10° SSW visible
26 Feb 10.1 02:46:24 11° ESE 02:46:24 11° ESE 02:46:31 10° ESE visible
26 Feb 8.1 04:22:47 34° SSW 04:22:47 34° SSW 04:26:28 10° SSE visible
27 Feb 8.6 04:28:33 24° SSW 04:28:33 24° SSW 04:31:22 10° SSE visible
28 Feb 9.1 04:34:29 15° SSW 04:34:29 15° SSW 04:35:57 10° S visible
